Regional Weather Roundup
Issued by NWS

Home | Current Version | Previous Version | Graphics & Text | Print | Product List | Glossary On
Versions: 1 2 3 4 5 6 7 8 9 10 11 12 13 14 15 16 17 18 19 20 21 22 23 24 25 26 27 28 29 30 31 32 33 34 35 36 37 38 39 40 41 42 43 44 45 46 47 48 49 50
000
ASUS43 KLSX 040559
RWRMO

WEATHER SUMMARY FOR MISSOURI
NATIONAL WEATHER SERVICE SPRINGFIELD MO
100 AM CDT MON MAY 04 2015

NOTE: "FAIR" INDICATES FEW OR NO CLOUDS BELOW 12,000 FEET WITH NO
       SIGNIFICANT WEATHER AND/OR OBSTRUCTIONS TO VISIBILITY.
       CURRENT SKY AND/OR WEATHER CONDITIONS ARE NOT AVAILABLE FOR
       CHILLICOTHE AND FARMINGTON.

MOZ001>031-035>038-043-044-053-054-040700-
...NORTHERN AND WESTERN MISSOURI...

CITY           SKY/WX    TMP DP  RH WIND       PRES   REMARKS
KANSAS CTY INT CLOUDY    68  57  68 S8        29.93R
6HR MIN TEMP:  68; 6HR MAX TEMP:  78;

KANSAS C DTWN  CLOUDY    71  56  58 S8        29.92R
6HR MIN TEMP:  71; 6HR MAX TEMP:  80;

LEE`S SUMMIT   MOCLDY    70  55  59 S8        29.94S
6HR MIN TEMP:  70; 6HR MAX TEMP:  77;

ST JOSEPH      CLOUDY    70  59  68 SE6       29.91F
6HR MIN TEMP:  69; 6HR MAX TEMP:  82;

CHILLICOTHE      N/A     71  57  61 S8        29.93S
6HR MIN TEMP:  71; 6HR MAX TEMP:  80;

KIRKSVILLE     CLOUDY    71  58  63 SW13      29.93S
6HR MIN TEMP:  71; 6HR MAX TEMP:  79;


$$
MOZ066>068-077>081-088>096-101>105-040700-
...SOUTHWEST MISSOURI...

CITY           SKY/WX    TMP DP  RH WIND       PRES   REMARKS
SPRINGFIELD    CLEAR     63  55  75 S8        30.01R
6HR MIN TEMP:  63; 6HR MAX TEMP:  76;

JOPLIN         CLEAR     66  55  67 S9        29.99R
6HR MIN TEMP:  66; 6HR MAX TEMP:  77;


$$
MOZ032>034-039>042-045>050-055>058-069>072-040700-
...CENTRAL MISSOURI...

CITY           SKY/WX    TMP DP  RH WIND       PRES   REMARKS
COLUMBIA       CLOUDY    64  55  72 S8        30.00R
6HR MIN TEMP:  64; 6HR MAX TEMP:  78;

JEFFERSON CITY MOCLDY    70  54  56 CALM      30.00R
6HR MIN TEMP:  69; 6HR MAX TEMP:  81;

ROLLA          CLEAR     66  54  65 S10       30.01R
6HR MIN TEMP:  66; 6HR MAX TEMP:  77;

SEDALIA        CLOUDY    63  56  78 S5        29.99R
6HR MIN TEMP:  63; 6HR MAX TEMP:  78;

WHITEMAN AFB   CLOUDY    64  57  78 S8        29.96R
OSAGE BEACH    PTCLDY    66  54  63 S5        30.01R

$$
MOZ051-052-059>065-040700-
...EAST CENTRAL MISSOURI...

CITY           SKY/WX    TMP DP  RH WIND       PRES   REMARKS
ST LOUIS INTL  MOCLDY    74  53  48 SW9       30.01R
6HR MIN TEMP:  74; 6HR MAX TEMP:  81; 6HR PCP: TRACE;

SPIRIT OF STL  PTCLDY    72  53  51 SW7       30.00R
6HR MIN TEMP:  71; 6HR MAX TEMP:  78; 6HR PCP: TRACE;

ST CHARLES     PTCLDY    70  53  54 S8        29.99R
6HR MIN TEMP:  68; 6HR MAX TEMP:  79;


$$
MOZ072>076-082>087-097>100-106>115-040700-
...SOUTH CENTRAL AND SOUTHEAST MISSOURI...

CITY           SKY/WX    TMP DP  RH WIND       PRES   REMARKS
CAPE GIRARDEAU CLEAR     67  50  54 S12       30.03R
6HR MIN TEMP:  67; 6HR MAX TEMP:  75;

FARMINGTON     CLEAR     64  52  63 SW5       30.08R
6HR MIN TEMP:  64; 6HR MAX TEMP:  75;

POPLAR BLUFF   CLEAR     63  52  67 CALM      30.03R
6HR MIN TEMP:  63; 6HR MAX TEMP:  77;

WEST PLAINS    CLEAR     65  53  65 SW3       30.05R
6HR MIN TEMP:  65; 6HR MAX TEMP:  77;


$$



USA.gov is the U.S. government's official web portal to all federal, state and local government web resources and services.